When you browse on this site, cookies collect data to enhance your experience and personalize the content and advertising you see.
Visit our Privacy Policy to learn more. By continuing to use the site, you agree to this use of cookies and data.
  • In United Kingdom
  • List of Countries
  • For 7 days
  • Water Temperature
  • Satellite Maps
  • Weather Map
  • Weather Widgets
  • user-avatar
    Login

    Hourly Weather Shapchino

    Today, 22 February, Friday

    Time Temperature Precipitation Wind Pressure Humidity
    00:00 -13°C° 0 mm 8 mps 738 mmHg 84%
    01:00 -13°C° 0.1 mm 8 mps 738 mmHg 85%
    02:00 -13°C° 0.1 mm 8 mps 739 mmHg 85%
    03:00 -13°C° 0.1 mm 8 mps 739 mmHg 86%
    04:00 -13°C° 0.1 mm 8 mps 740 mmHg 86%
    05:00 -15°C° 0.1 mm 8 mps 740 mmHg 86%
    06:00 -15°C° 0.1 mm 8 mps 741 mmHg 86%
    07:00 -15°C° 0.1 mm 8 mps 741 mmHg 86%
    08:00 -15°C° 0.1 mm 8 mps 742 mmHg 86%
    09:00 -15°C° 0.1 mm 8 mps 743 mmHg 85%
    10:00 -13°C° 0.1 mm 8 mps 744 mmHg 85%
    11:00 -13°C° 0.1 mm 8 mps 745 mmHg 84%
    12:00 -13°C° 0.1 mm 8 mps 745 mmHg 83%
    13:00 -13°C° 0.1 mm 8 mps 746 mmHg 83%
    14:00 -13°C° 0.1 mm 8 mps 747 mmHg 83%
    15:00 -13°C° 0.1 mm 8 mps 748 mmHg 83%
    16:00 -13°C° 0 mm 7 mps 749 mmHg 83%
    17:00 -13°C° 0 mm 7 mps 750 mmHg 83%
    18:00 -12°C° 0 mm 6 mps 750 mmHg 84%
    19:00 -14°C° 0 mm 6 mps 751 mmHg 83%
    20:00 -14°C° 0 mm 6 mps 752 mmHg 83%
    21:00 -14°C° 0 mm 6 mps 753 mmHg 82%
    22:00 -15°C° 0 mm 6 mps 754 mmHg 82%
    23:00 -15°C° 0 mm 6 mps 754 mmHg 82%

    Tomorrow, 23 February, Saturday

    Time Temperature Precipitation Wind Pressure Humidity
    00:00 -15°C° 0 mm 5 mps 755 mmHg 82%
    01:00 -15°C° 0 mm 5 mps 756 mmHg 83%
    02:00 -16°C° 0 mm 4 mps 757 mmHg 85%
    03:00 -16°C° 0 mm 4 mps 757 mmHg 86%
    04:00 -17°C° 0 mm 4 mps 758 mmHg 87%
    05:00 -17°C° 0 mm 4 mps 758 mmHg 89%
    06:00 -17°C° 0 mm 4 mps 759 mmHg 90%
    07:00 -17°C° 0 mm 4 mps 759 mmHg 90%
    08:00 -17°C° 0 mm 4 mps 760 mmHg 91%
    09:00 -17°C° 0 mm 4 mps 760 mmHg 91%
    10:00 -16°C° 0 mm 4 mps 760 mmHg 89%
    11:00 -15°C° 0 mm 4 mps 760 mmHg 87%
    12:00 -12°C° 0 mm 3 mps 761 mmHg 85%
    13:00 -10°C° 0 mm 3 mps 760 mmHg 84%
    14:00 -9°C° 0 mm 3 mps 760 mmHg 84%
    15:00 -8°C° 0 mm 3 mps 759 mmHg 84%
    16:00 -9°C° 0 mm 3 mps 759 mmHg 85%
    17:00 -9°C° 0 mm 3 mps 758 mmHg 86%
    18:00 -10°C° 0 mm 3 mps 758 mmHg 88%
    19:00 -9°C° 0 mm 3 mps 757 mmHg 86%
    20:00 -10°C° 0 mm 4 mps 757 mmHg 85%
    21:00 -10°C° 0 mm 4 mps 756 mmHg 83%
    22:00 -10°C° 0.1 mm 5 mps 756 mmHg 85%
    23:00 -10°C° 0.1 mm 5 mps 755 mmHg 88%

    Day after tomorrow, 24 February, Sunday

    Time Temperature Precipitation Wind Pressure Humidity
    00:00 -10°C° 0.1 mm 5 mps 755 mmHg 90%
    01:00 -10°C° 0.1 mm 5 mps 754 mmHg 91%
    02:00 -10°C° 0.1 mm 5 mps 754 mmHg 91%
    03:00 -10°C° 0.1 mm 5 mps 753 mmHg 91%
    04:00 -9°C° 0.1 mm 4 mps 753 mmHg 92%
    05:00 -8°C° 0.1 mm 4 mps 753 mmHg 92%
    06:00 -8°C° 0.1 mm 4 mps 752 mmHg 93%
    07:00 -7°C° 0 mm 4 mps 752 mmHg 93%
    08:00 -7°C° 0 mm 4 mps 752 mmHg 93%
    09:00 -5°C° 0 mm 4 mps 752 mmHg 94%
    10:00 -4°C° 0.1 mm 4 mps 752 mmHg 95%
    11:00 -3°C° 0.1 mm 4 mps 752 mmHg 97%
    12:00 -2°C° 0.1 mm 4 mps 752 mmHg 98%
    13:00 -1°C° 0.1 mm 4 mps 752 mmHg 99%
    14:00 -1°C° 0.1 mm 4 mps 752 mmHg 99%
    15:00 -1°C° 0.1 mm 4 mps 752 mmHg 99%
    16:00 -1°C° 0.1 mm 4 mps 752 mmHg 98%
    17:00 -1°C° 0.1 mm 4 mps 752 mmHg 97%
    18:00 -1°C° 0.1 mm 4 mps 752 mmHg 95%
    19:00 -1°C° 0 mm 4 mps 752 mmHg 95%
    20:00 -1°C° 0 mm 4 mps 752 mmHg 94%
    21:00 -1°C° 0 mm 4 mps 752 mmHg 94%
    22:00 -1°C° 0 mm 4 mps 752 mmHg 94%
    23:00 -1°C° 0 mm 4 mps 752 mmHg 94%

    25 February, Monday

    Time Temperature Precipitation Wind Pressure Humidity
    00:00 -1°C° 0 mm 4 mps 751 mmHg 94%
    01:00 -1°C° 0 mm 4 mps 751 mmHg 94%
    02:00 -1°C° 0 mm 4 mps 750 mmHg 94%
    03:00 -1°C° 0 mm 5 mps 750 mmHg 94%
    04:00 -1°C° 0.2 mm 5 mps 749 mmHg 94%
    05:00 -1°C° 0.2 mm 5 mps 748 mmHg 94%
    06:00 -2°C° 0.2 mm 6 mps 747 mmHg 94%
    07:00 -2°C° 0.1 mm 6 mps 747 mmHg 94%
    08:00 -2°C° 0.1 mm 6 mps 746 mmHg 95%
    09:00 -1°C° 0.1 mm 6 mps 746 mmHg 95%
    10:00 -1°C° 0.2 mm 6 mps 746 mmHg 95%
    11:00 -1°C° 0.2 mm 6 mps 745 mmHg 94%
    12:00 -1°C° 0.2 mm 7 mps 745 mmHg 93%
    13:00 -2°C° 0 mm 7 mps 745 mmHg 92%
    14:00 -2°C° 0 mm 6 mps 745 mmHg 91%
    15:00 -2°C° 0 mm 6 mps 745 mmHg 91%
    16:00 -2°C° 0.1 mm 6 mps 745 mmHg 89%
    17:00 -2°C° 0.1 mm 7 mps 745 mmHg 88%
    18:00 -2°C° 0.1 mm 7 mps 745 mmHg 86%
    19:00 -2°C° 0 mm 7 mps 745 mmHg 85%
    20:00 -3°C° 0 mm 7 mps 745 mmHg 84%
    21:00 -3°C° 0 mm 7 mps 744 mmHg 83%
    22:00 -4°C° 0 mm 6 mps 744 mmHg 84%
    23:00 -4°C° 0 mm 6 mps 744 mmHg 85%

    26 February, Tuesday

    Time Temperature Precipitation Wind Pressure Humidity
    00:00 -4°C° 0 mm 6 mps 744 mmHg 85%
    01:00 -4°C° 0.1 mm 6 mps 743 mmHg 86%
    02:00 -4°C° 0.1 mm 6 mps 743 mmHg 87%
    03:00 -4°C° 0.1 mm 6 mps 743 mmHg 88%
    04:00 -4°C° 0 mm 5 mps 742 mmHg 88%
    05:00 -5°C° 0 mm 5 mps 741 mmHg 89%
    06:00 -5°C° 0 mm 5 mps 741 mmHg 89%
    07:00 -5°C° 0 mm 5 mps 740 mmHg 90%
    08:00 -4°C° 0 mm 5 mps 739 mmHg 90%
    09:00 -4°C° 0 mm 5 mps 739 mmHg 90%
    10:00 -3°C° 0.1 mm 4 mps 738 mmHg 90%
    11:00 -2°C° 0.1 mm 4 mps 737 mmHg 91%
    12:00 -2°C° 0.1 mm 4 mps 737 mmHg 91%
    13:00 -1°C° 0.1 mm 3 mps 736 mmHg 91%
    14:00 -1°C° 0.1 mm 3 mps 736 mmHg 91%
    15:00 -1°C° 0.1 mm 3 mps 736 mmHg 91%
    16:00 -1°C° 0.1 mm 3 mps 736 mmHg 91%
    17:00 -2°C° 0.1 mm 3 mps 736 mmHg 91%
    18:00 -2°C° 0.1 mm 3 mps 737 mmHg 91%
    19:00 -4°C° 0 mm 3 mps 737 mmHg 91%
    20:00 -4°C° 0 mm 3 mps 737 mmHg 91%
    21:00 -5°C° 0 mm 3 mps 738 mmHg 91%
    22:00 -5°C° 0 mm 4 mps 738 mmHg 91%
    23:00 -5°C° 0 mm 4 mps 738 mmHg 92%

    27 February, Wednesday

    Time Temperature Precipitation Wind Pressure Humidity
    00:00 -5°C° 0 mm 4 mps 739 mmHg 92%
    01:00 -5°C° 0.1 mm 4 mps 739 mmHg 91%
    02:00 -6°C° 0.1 mm 5 mps 739 mmHg 90%
    03:00 -5°C° 0.1 mm 5 mps 739 mmHg 89%
    04:00 -6°C° 0.1 mm 5 mps 739 mmHg 89%
    05:00 -6°C° 0.1 mm 5 mps 739 mmHg 90%
    06:00 -6°C° 0.1 mm 5 mps 739 mmHg 90%
    07:00 -6°C° 0.1 mm 5 mps 740 mmHg 89%
    08:00 -6°C° 0.1 mm 5 mps 740 mmHg 87%
    09:00 -6°C° 0.1 mm 6 mps 741 mmHg 86%
    10:00 -6°C° 0 mm 5 mps 741 mmHg 85%
    11:00 -6°C° 0 mm 5 mps 742 mmHg 85%
    12:00 -6°C° 0 mm 5 mps 742 mmHg 84%
    13:00 -4°C° 0 mm 4 mps 742 mmHg 84%
    14:00 -4°C° 0 mm 4 mps 742 mmHg 84%
    15:00 -4°C° 0 mm 3 mps 742 mmHg 84%
    16:00 -5°C° 0 mm 3 mps 742 mmHg 85%
    17:00 -5°C° 0 mm 3 mps 742 mmHg 86%
    18:00 -6°C° 0 mm 3 mps 742 mmHg 87%
    19:00 -6°C° 0 mm 3 mps 741 mmHg 89%
    20:00 -7°C° 0 mm 3 mps 741 mmHg 91%
    21:00 -7°C° 0 mm 2 mps 740 mmHg 93%
    22:00 -8°C° 0 mm 3 mps 739 mmHg 92%
    23:00 -8°C° 0 mm 3 mps 739 mmHg 91%
    Show more